When you browse on this site, cookies collect data to enhance your experience and personalize the content and advertising you see.
Visit our Privacy Policy to learn more. By continuing to use the site, you agree to this use of cookies and data.
  • In Schweiz
  • Länderverzeichnis
  • Für 7 Tage
  • Wassertemperatur
  • Wetterkarte
  • Widgets
  • user-avatar
    Anmelden

    Stündliche Wetter Makeevskaya

    Heute, 6 Dezember, Freitag

    Zeit Temperatur Niederschläge Wind Luftdruck Luftfeuchtigkeit
    00:00 -2°C° 0 mm 5 m/S 743 mmHg 87%
    01:00 -2°C° 0 mm 5 m/S 743 mmHg 87%
    02:00 -2°C° 0 mm 5 m/S 743 mmHg 86%
    03:00 -4°C° 0 mm 5 m/S 742 mmHg 85%
    04:00 -4°C° 0 mm 5 m/S 742 mmHg 84%
    05:00 -4°C° 0 mm 5 m/S 741 mmHg 84%
    06:00 -4°C° 0 mm 5 m/S 741 mmHg 84%
    07:00 -4°C° 0 mm 5 m/S 741 mmHg 83%
    08:00 -5°C° 0 mm 5 m/S 741 mmHg 83%
    09:00 -4°C° 0 mm 5 m/S 741 mmHg 82%
    10:00 -4°C° 0 mm 5 m/S 741 mmHg 80%
    11:00 -2°C° 0 mm 5 m/S 740 mmHg 79%
    12:00 -2°C° 0 mm 5 m/S 740 mmHg 78%
    13:00 -3°C° 0 mm 6 m/S 740 mmHg 77%
    14:00 -3°C° 0 mm 6 m/S 739 mmHg 77%
    15:00 -3°C° 0 mm 6 m/S 739 mmHg 77%
    16:00 -4°C° 0 mm 6 m/S 739 mmHg 78%
    17:00 -4°C° 0 mm 6 m/S 738 mmHg 78%
    18:00 -4°C° 0 mm 6 m/S 739 mmHg 77%
    19:00 -3°C° 0 mm 6 m/S 739 mmHg 76%
    20:00 -3°C° 0 mm 6 m/S 739 mmHg 75%
    21:00 -2°C° 0 mm 5 m/S 739 mmHg 76%
    22:00 -2°C° 0 mm 5 m/S 739 mmHg 77%
    23:00 -2°C° 0 mm 5 m/S 739 mmHg 77%

    Morgen, 7 Dezember, Samstag

    Zeit Temperatur Niederschläge Wind Luftdruck Luftfeuchtigkeit
    00:00 -2°C° 0 mm 5 m/S 739 mmHg 78%
    01:00 -2°C° 0 mm 5 m/S 739 mmHg 78%
    02:00 -2°C° 0 mm 5 m/S 739 mmHg 78%
    03:00 -2°C° 0 mm 5 m/S 739 mmHg 79%
    04:00 -4°C° 0 mm 5 m/S 739 mmHg 80%
    05:00 -3°C° 0 mm 4 m/S 738 mmHg 80%
    06:00 -3°C° 0 mm 4 m/S 738 mmHg 81%
    07:00 -3°C° 0 mm 4 m/S 739 mmHg 81%
    08:00 -3°C° 0 mm 4 m/S 739 mmHg 81%
    09:00 -3°C° 0 mm 4 m/S 738 mmHg 81%
    10:00 -3°C° 0 mm 4 m/S 738 mmHg 80%
    11:00 -2°C° 0 mm 5 m/S 738 mmHg 79%
    12:00 -2°C° 0 mm 5 m/S 738 mmHg 78%
    13:00 -2°C° 0 mm 5 m/S 737 mmHg 77%
    14:00 -2°C° 0 mm 5 m/S 737 mmHg 75%
    15:00 -4°C° 0 mm 5 m/S 737 mmHg 77%
    16:00 -4°C° 0 mm 5 m/S 736 mmHg 78%
    17:00 -4°C° 0 mm 5 m/S 736 mmHg 79%
    18:00 -4°C° 0 mm 5 m/S 736 mmHg 80%
    19:00 -5°C° 0 mm 5 m/S 736 mmHg 81%
    20:00 -5°C° 0 mm 5 m/S 736 mmHg 82%
    21:00 -4°C° 0 mm 5 m/S 735 mmHg 82%
    22:00 -4°C° 0 mm 5 m/S 735 mmHg 82%
    23:00 -4°C° 0 mm 5 m/S 734 mmHg 82%

    übermorgen, 8 Dezember, Sonntag

    Zeit Temperatur Niederschläge Wind Luftdruck Luftfeuchtigkeit
    00:00 -4°C° 0.1 mm 5 m/S 734 mmHg 85%
    01:00 -4°C° 0.1 mm 5 m/S 734 mmHg 87%
    02:00 -4°C° 0.1 mm 5 m/S 733 mmHg 90%
    03:00 -2°C° 0.4 mm 5 m/S 733 mmHg 92%
    04:00 -1°C° 0.4 mm 5 m/S 732 mmHg 94%
    05:00 -1°C° 0.4 mm 5 m/S 732 mmHg 96%
    06:00 -1°C° 0.3 mm 6 m/S 732 mmHg 95%
    07:00 -1°C° 0.3 mm 6 m/S 732 mmHg 95%
    08:00 -1°C° 0.3 mm 6 m/S 732 mmHg 94%
    09:00 -1°C° 0 mm 6 m/S 733 mmHg 91%
    10:00 -1°C° 0 mm 6 m/S 733 mmHg 89%
    11:00 0°C° 0 mm 5 m/S 733 mmHg 87%
    12:00 0°C° 0 mm 5 m/S 733 mmHg 85%
    13:00 0°C° 0 mm 5 m/S 733 mmHg 83%
    14:00 0°C° 0 mm 5 m/S 734 mmHg 81%
    15:00 -1°C° 0 mm 5 m/S 734 mmHg 83%
    16:00 -1°C° 0 mm 5 m/S 734 mmHg 84%
    17:00 -2°C° 0 mm 4 m/S 735 mmHg 86%
    18:00 -2°C° 0 mm 4 m/S 735 mmHg 85%
    19:00 -2°C° 0 mm 4 m/S 736 mmHg 84%
    20:00 -2°C° 0 mm 4 m/S 736 mmHg 82%
    21:00 -2°C° 0 mm 4 m/S 736 mmHg 84%
    22:00 -2°C° 0 mm 4 m/S 736 mmHg 86%
    23:00 -2°C° 0 mm 4 m/S 735 mmHg 88%

    9 Dezember, Montag

    Zeit Temperatur Niederschläge Wind Luftdruck Luftfeuchtigkeit
    00:00 -2°C° 0.1 mm 4 m/S 735 mmHg 91%
    01:00 -1°C° 0.1 mm 4 m/S 735 mmHg 94%
    02:00 -1°C° 0.1 mm 5 m/S 735 mmHg 97%
    03:00 0°C° 0.4 mm 5 m/S 734 mmHg 96%
    04:00 0°C° 0.4 mm 5 m/S 734 mmHg 96%
    05:00 +1°C° 0.4 mm 5 m/S 734 mmHg 96%
    06:00 +1°C° 0.2 mm 5 m/S 733 mmHg 96%
    07:00 +1°C° 0.2 mm 6 m/S 733 mmHg 96%
    08:00 +1°C° 0.2 mm 6 m/S 733 mmHg 95%
    09:00 +1°C° 0 mm 6 m/S 733 mmHg 95%
    10:00 +1°C° 0 mm 6 m/S 733 mmHg 94%
    11:00 +1°C° 0 mm 6 m/S 733 mmHg 94%
    12:00 +1°C° 0.1 mm 6 m/S 732 mmHg 94%
    13:00 +1°C° 0.1 mm 5 m/S 732 mmHg 94%
    14:00 +1°C° 0.1 mm 5 m/S 732 mmHg 94%
    15:00 +1°C° 0.2 mm 5 m/S 732 mmHg 94%
    16:00 +1°C° 0.2 mm 5 m/S 732 mmHg 94%
    17:00 +1°C° 0.2 mm 5 m/S 732 mmHg 95%
    18:00 +1°C° 0.3 mm 5 m/S 732 mmHg 95%
    19:00 +1°C° 0.3 mm 4 m/S 732 mmHg 95%
    20:00 +1°C° 0.3 mm 4 m/S 732 mmHg 95%
    21:00 +1°C° 0 mm 4 m/S 732 mmHg 95%
    22:00 0°C° 0 mm 4 m/S 732 mmHg 96%
    23:00 +1°C° 0 mm 3 m/S 733 mmHg 96%

    10 Dezember, Dienstag

    Zeit Temperatur Niederschläge Wind Luftdruck Luftfeuchtigkeit
    00:00 +1°C° 0 mm 3 m/S 733 mmHg 97%
    01:00 +2°C° 0 mm 2 m/S 733 mmHg 97%
    02:00 +2°C° 0 mm 2 m/S 733 mmHg 98%
    03:00 +2°C° 0 mm 2 m/S 733 mmHg 98%
    04:00 +2°C° 0 mm 2 m/S 733 mmHg 98%
    05:00 +2°C° 0 mm 2 m/S 733 mmHg 98%
    06:00 +2°C° 0 mm 2 m/S 733 mmHg 98%
    07:00 +2°C° 0 mm 2 m/S 733 mmHg 98%
    08:00 +3°C° 0 mm 1 m/S 733 mmHg 98%
    09:00 +3°C° 0.2 mm 1 m/S 733 mmHg 98%
    10:00 +3°C° 0.2 mm 1 m/S 733 mmHg 98%
    11:00 +2°C° 0.2 mm 2 m/S 733 mmHg 98%
    12:00 +3°C° 0.6 mm 1 m/S 732 mmHg 98%
    13:00 +3°C° 0.6 mm 1 m/S 732 mmHg 98%
    14:00 +3°C° 0.6 mm 1 m/S 732 mmHg 98%
    15:00 +3°C° 0.6 mm 1 m/S 732 mmHg 98%
    16:00 +3°C° 0.6 mm 1 m/S 731 mmHg 98%
    17:00 +3°C° 0.6 mm 1 m/S 731 mmHg 98%
    18:00 +3°C° 0.6 mm 1 m/S 731 mmHg 98%
    19:00 +3°C° 0.6 mm 1 m/S 730 mmHg 98%
    20:00 +3°C° 0.6 mm 1 m/S 730 mmHg 98%
    21:00 +3°C° 1 mm 1 m/S 730 mmHg 98%
    22:00 +3°C° 1 mm 1 m/S 729 mmHg 98%
    23:00 +3°C° 1 mm 1 m/S 729 mmHg 98%

    11 Dezember, Mittwoch

    Zeit Temperatur Niederschläge Wind Luftdruck Luftfeuchtigkeit
    00:00 +2°C° 1.1 mm 2 m/S 729 mmHg 98%
    01:00 +1°C° 1.1 mm 3 m/S 729 mmHg 97%
    02:00 -1°C° 1.1 mm 4 m/S 729 mmHg 97%
    03:00 -2°C° 0.6 mm 5 m/S 730 mmHg 96%
    04:00 -3°C° 0.6 mm 6 m/S 731 mmHg 94%
    05:00 -4°C° 0.6 mm 7 m/S 731 mmHg 93%
    06:00 -6°C° 0.1 mm 7 m/S 732 mmHg 88%
    07:00 -5°C° 0.1 mm 6 m/S 733 mmHg 82%
    08:00 -6°C° 0.1 mm 6 m/S 734 mmHg 76%
    09:00 -6°C° 0 mm 6 m/S 735 mmHg 77%
    10:00 -6°C° 0 mm 6 m/S 736 mmHg 77%
    11:00 -6°C° 0 mm 5 m/S 737 mmHg 77%
    12:00 -6°C° 0 mm 5 m/S 737 mmHg 76%
    13:00 -5°C° 0 mm 4 m/S 738 mmHg 74%
    14:00 -5°C° 0 mm 4 m/S 738 mmHg 73%
    15:00 -5°C° 0 mm 4 m/S 739 mmHg 73%
    16:00 -5°C° 0 mm 4 m/S 740 mmHg 74%
    17:00 -5°C° 0 mm 3 m/S 740 mmHg 75%
    18:00 -5°C° 0 mm 3 m/S 740 mmHg 76%
    19:00 -4°C° 0 mm 2 m/S 741 mmHg 77%
    20:00 -4°C° 0 mm 2 m/S 741 mmHg 78%
    21:00 -4°C° 0 mm 2 m/S 741 mmHg 80%
    22:00 -4°C° 0 mm 2 m/S 741 mmHg 82%
    23:00 -5°C° 0 mm 2 m/S 741 mmHg 84%
    Mehr zeigen